Vorticity
7 6 6 6 6 7 7 7 6 5 5 4 4 3 3 4 4 4 5 5 5 6 6 7 7 7 7 6 6 6 6 6 6 7 7 6 6 6 5 5 6 6 7 7 7 7 7 7 6 6 6 6 7 9 11 14 17 19 22 24 25 27 28 29 29 27 24 20 16 13 11 11 11 12 12 13 14 14 15 15 16 16 15 16 17 20
7 6 7 7 7 7 7 7 6 5 4 4 3 3 3 4 4 4 5 5 6 6 7 7 7 7 7 6 6 6 6 6 6 7 6 6 6 5 5 5 6 6 7 7 7 7 7 6 6 6 6 7 8 10 13 16 19 21 24 25 27 28 29 29 28 25 21 17 14 11 11 11 12 13 14 15 16 17 17 17 17 17 16 16 17 19
6 7 7 8 8 7 6 6 5 5 4 3 3 3 3 4 4 5 5 5 6 6 7 7 7 7 6 6 6 6 6 6 7 7 6 6 5 5 5 5 6 7 7 8 7 7 7 6 6 6 6 7 9 12 15 19 21 24 25 27 28 28 29 28 25 22 17 14 12 10 10 11 13 14 16 17 18 19 19 19 18 18 17 16 17 18
6 7 7 7 8 7 6 5 4 4 4 3 3 3 4 4 4 5 5 5 6 6 7 7 7 7 6 6 6 6 6 6 6 6 6 5 5 5 5 6 7 7 8 8 7 7 6 6 6 6 7 8 11 14 18 21 24 26 27 28 29 29 28 26 23 18 14 12 10 10 10 12 14 16 18 19 20 21 22 21 20 19 17 17 17 17
7 8 7 7 7 7 6 5 4 3 3 4 4 4 4 4 4 5 5 6 6 7 7 7 7 6 6 6 6 6 6 6 6 6 6 5 5 5 5 6 7 7 8 7 7 7 6 6 6 6 7 9 12 16 20 23 26 28 29 29 29 28 27 23 19 15 12 10 10 10 11 13 15 17 19 21 22 23 23 23 21 20 18 17 17 17
8 8 7 7 6 5 4 4 4 3 3 4 4 4 4 4 5 5 5 6 6 7 7 7 7 6 6 6 6 6 6 6 6 6 5 5 5 5 6 6 7 7 7 7 7 6 6 6 6 7 8 10 14 19 23 26 28 30 30 30 29 27 25 21 17 13 11 10 9 10 12 14 16 18 20 22 23 24 24 24 22 21 19 17 17 17
7 7 7 7 6 5 4 4 4 3 3 4 4 4 5 5 5 5 6 6 7 7 7 7 6 6 6 6 6 6 6 6 5 5 5 5 5 6 6 7 7 7 7 7 6 6 6 6 6 7 9 12 17 22 25 28 30 31 31 30 29 26 22 18 14 12 10 9 10 11 13 15 17 19 21 22 23 24 25 24 23 22 20 18 17 17
6 7 7 6 5 5 5 4 4 4 3 3 3 4 4 5 5 6 6 7 7 7 7 6 6 6 6 6 6 6 6 5 5 5 5 5 6 6 6 7 7 7 7 7 6 6 6 6 7 8 10 15 20 24 28 30 32 32 32 30 28 24 19 16 13 11 9 9 10 12 13 15 17 19 21 22 23 24 25 25 24 22 20 18 17 17
6 6 6 6 5 4 4 4 4 4 3 3 3 3 3 4 5 6 7 7 8 7 7 6 6 6 6 6 6 6 5 5 5 5 5 5 6 6 6 7 7 7 7 6 6 6 6 6 7 9 13 18 22 26 30 32 33 33 32 30 26 21 17 14 12 10 9 10 11 12 14 15 17 19 20 22 23 25 25 25 24 23 21 19 17 16
7 6 5 5 5 4 4 4 4 4 3 3 4 4 4 4 5 5 6 7 7 7 7 6 5 5 5 6 6 6 5 5 5 5 5 6 6 6 7 7 7 7 7 6 6 6 6 7 8 11 15 20 25 28 31 34 35 34 32 28 23 19 15 13 11 10 10 10 11 13 14 15 17 18 20 22 23 25 25 25 25 23 21 19 18 16
7 6 5 5 5 5 4 4 3 3 3 3 4 4 5 5 5 6 6 6 6 6 6 6 5 5 5 5 6 6 5 5 5 5 6 6 6 7 7 7 7 7 6 6 5 5 6 7 10 13 18 23 27 30 33 35 35 34 31 26 21 17 14 12 11 10 10 11 12 13 14 15 16 18 20 22 23 24 25 25 24 23 21 19 18 16
6 6 6 5 4 4 4 4 3 3 3 4 4 4 5 6 6 6 7 6 6 6 5 5 5 6 6 5 5 5 5 5 5 5 5 6 7 7 8 8 7 7 6 5 5 6 7 8 11 15 21 25 29 32 35 36 35 33 28 23 19 15 13 12 12 11 11 11 12 13 14 15 16 18 19 21 23 24 25 25 24 22 21 19 17 16
6 6 5 5 4 4 3 3 3 3 4 4 4 4 5 5 6 6 7 7 6 6 5 5 5 6 6 6 5 5 5 5 5 4 5 6 7 7 8 8 7 6 5 5 5 6 8 10 13 18 23 27 31 34 36 36 35 31 26 21 17 14 13 13 12 12 11 12 12 13 13 14 15 17 19 20 22 23 24 24 23 22 20 18 17 16
6 6 6 5 4 4 4 3 3 3 4 4 4 4 4 5 5 6 7 7 6 6 5 5 5 5 5 6 6 5 5 4 4 4 5 7 7 8 8 8 7 6 5 5 6 7 9 11 16 21 26 30 33 35 37 36 33 29 23 19 16 14 14 13 13 12 12 12 12 12 13 13 15 16 18 20 21 22 23 23 22 21 19 18 17 16
6 5 5 5 4 4 3 3 3 3 4 4 4 4 5 5 6 7 7 7 6 5 5 5 5 5 5 5 5 5 5 4 4 5 6 7 8 8 8 8 7 6 6 6 7 8 10 14 18 23 28 32 35 36 36 34 31 26 21 18 16 14 14 14 13 13 12 12 12 12 12 13 14 15 17 19 21 22 22 22 21 20 18 17 16 15
6 6 5 4 4 3 3 3 3 3 3 4 4 4 5 6 6 7 7 6 6 5 5 5 5 5 6 5 5 4 4 4 5 5 6 7 8 9 9 8 7 7 7 8 8 9 12 17 22 26 30 34 36 36 35 32 28 23 19 17 15 15 14 14 14 13 12 12 12 12 12 12 13 14 16 18 20 21 21 21 20 19 17 16 15 14
6 6 5 4 4 3 3 3 3 3 3 4 4 5 5 6 6 6 7 6 6 5 5 5 5 5 5 5 5 5 4 4 5 6 7 8 8 8 9 8 8 7 8 9 10 11 14 19 24 29 34 36 36 35 33 30 25 21 18 16 16 15 15 14 14 13 12 12 12 11 11 11 12 13 15 17 19 20 21 20 19 18 16 15 14 13
6 5 4 4 4 3 3 3 3 3 4 4 4 5 6 6 6 6 7 6 6 5 5 5 5 5 4 4 4 4 4 5 6 7 8 9 8 8 8 9 9 9 9 11 12 15 18 21 26 30 34 36 36 34 31 26 22 19 17 16 16 16 15 14 14 13 12 12 12 12 11 11 11 12 13 16 18 20 20 20 19 17 16 15 14 13
6 5 4 4 3 3 3 3 3 3 4 4 4 4 5 6 7 7 7 6 6 5 4 4 5 5 5 5 4 3 4 5 6 8 9 9 8 7 8 9 11 12 13 14 15 17 20 24 28 32 35 36 34 31 27 23 20 18 17 17 16 16 15 14 14 13 13 13 13 12 12 11 11 11 12 14 17 19 20 20 19 18 16 15 14 13
5 5 4 4 3 3 3 3 4 4 4 3 4 4 5 6 6 7 6 6 5 5 4 4 5 5 5 5 4 4 5 6 8 9 10 8 7 7 7 10 11 13 15 17 18 20 22 25 30 34 36 35 32 28 24 20 18 17 17 17 16 16 15 14 13 13 14 14 14 14 13 12 11 11 11 13 16 18 19 19 19 18 18 17 16 15
5 5 4 3 3 3 3 3 3 3 3 3 4 5 6 6 6 6 6 5 5 5 5 5 5 5 5 4 4 4 5 7 8 9 8 8 7 7 8 10 12 14 16 19 21 23 25 28 31 34 35 32 29 24 20 18 17 17 17 17 16 15 15 14 14 15 16 17 17 16 14 12 12 12 12 13 15 17 18 18 18 19 19 19 19 19
5 4 4 3 3 3 3 3 3 3 3 3 4 5 5 6 6 6 6 5 5 4 4 5 5 4 4 5 5 5 6 8 8 8 7 7 7 7 7 10 13 16 20 22 24 26 29 31 33 34 33 29 25 21 18 17 16 16 17 16 16 15 15 16 17 19 20 20 19 17 14 13 12 12 13 15 16 17 17 17 17 18 19 20 21 22
5 4 3 3 3 3 3 3 3 3 3 4 4 4 5 6 6 6 5 5 4 4 4 4 4 4 5 5 6 6 7 8 8 8 7 7 7 6 6 9 14 19 25 26 27 29 32 34 33 32 29 25 21 18 16 16 16 16 16 16 16 17 18 20 21 22 23 22 20 17 14 13 12 13 15 17 19 19 18 17 16 16 17 19 21 22
5 4 4 3 3 3 3 3 3 3 3 4 4 5 6 6 6 6 5 4 4 4 4 4 4 5 6 6 6 7 8 8 8 8 8 7 6 5 5 9 15 23 31 33 32 32 33 34 32 29 25 22 19 16 15 15 16 16 17 18 19 21 23 24 24 24 23 21 19 17 15 13 13 14 16 19 21 21 20 18 16 16 16 17 19 20
4 4 4 3 3 3 3 3 3 3 4 4 5 5 6 6 6 6 5 5 4 4 4 4 5 5 5 5 6 7 7 7 7 7 7 6 5 5 7 12 18 26 34 36 37 36 35 33 29 25 22 19 17 16 15 16 16 18 19 21 23 25 26 26 24 23 22 21 19 18 16 15 15 16 18 20 22 22 20 18 16 15 15 16 17 18
4 4 3 3 3 3 3 3 3 3 4 4 5 6 6 6 6 6 5 5 5 4 4 4 5 5 4 5 6 6 6 6 7 7 7 5 4 6 9 15 23 31 37 40 40 38 36 31 26 21 18 17 16 15 16 17 18 20 22 25 26 27 26 24 22 20 19 19 19 19 18 17 17 17 18 20 22 22 20 18 16 15 15 16 16 17
4 4 3 3 3 3 3 3 3 4 4 5 5 6 6 6 6 6 5 5 4 4 4 4 4 4 5 6 7 6 5 6 6 7 6 5 5 8 13 19 28 36 42 46 45 40 34 28 23 20 17 16 16 16 17 19 21 23 25 26 26 25 23 20 18 16 16 17 18 18 18 18 17 17 18 20 21 21 19 17 15 15 15 16 16 16
4 4 3 3 3 3 3 3 3 4 4 5 5 6 6 6 6 6 5 4 4 4 4 4 4 5 5 6 6 6 5 6 6 6 5 5 7 11 17 24 33 41 45 48 46 40 32 25 20 18 17 17 18 19 20 22 24 25 25 25 24 22 18 16 14 12 12 12 13 14 14 15 15 15 16 17 18 19 18 16 14 13 13 14 16 16
4 4 4 3 3 3 3 3 3 4 4 5 5 6 6 6 6 5 4 4 4 4 4 5 5 5 6 6 6 6 6 7 6 4 3 6 10 16 21 30 40 46 47 45 42 38 31 22 18 16 17 18 20 21 23 24 24 24 23 22 20 17 15 13 12 11 10 10 9 9 10 10 11 11 12 14 15 16 16 15 13 12 11 12 14 15
4 4 4 4 4 3 3 3 3 4 4 5 5 6 6 6 6 5 4 4 4 4 4 5 5 6 6 6 6 7 8 7 5 4 3 8 14 20 26 39 47 50 47 41 38 35 29 22 18 16 18 19 21 22 23 23 22 19 17 16 14 13 11 11 11 11 11 10 9 8 8 8 8 8 9 11 12 14 15 14 13 11 10 10 11 13
4 4 4 4 3 3 3 3 3 3 4 5 6 6 6 6 6 5 4 4 4 4 4 5 5 6 6 6 7 7 7 5 4 4 5 12 19 26 33 44 51 52 50 42 36 30 24 21 19 18 19 19 20 20 20 18 16 13 10 9 8 8 8 9 11 12 13 13 12 11 9 8 8 8 8 9 11 12 14 14 14 12 10 10 10 11
4 4 4 3 3 3 3 3 3 4 4 5 6 6 6 6 6 5 4 4 4 4 4 5 5 6 7 8 8 7 5 4 3 4 8 17 25 34 43 49 51 50 46 40 33 26 21 20 20 20 19 17 16 15 14 12 9 7 5 5 5 5 6 8 9 11 14 15 16 15 13 11 10 9 9 10 11 13 14 15 15 14 12 11 10 10
4 4 4 3 3 3 3 3 3 4 5 5 6 6 6 6 6 5 4 4 4 4 4 5 6 6 7 8 7 6 5 4 4 6 12 23 32 40 47 52 52 47 38 32 27 22 19 19 19 18 16 14 12 10 8 6 5 4 4 4 5 6 7 8 9 11 12 15 17 18 17 14 12 10 10 11 12 14 15 16 17 16 15 13 12 11
4 4 4 3 3 3 3 4 4 5 5 6 6 6 6 6 5 5 4 4 4 4 5 6 6 7 7 7 6 6 5 4 6 10 18 31 39 45 48 52 49 43 33 27 22 19 18 17 16 14 12 10 8 6 5 4 4 4 5 6 7 8 9 9 10 11 12 13 16 18 19 17 14 12 10 11 12 13 15 17 18 18 18 16 14 12
4 4 4 3 3 3 3 4 5 5 6 6 7 6 6 5 5 4 4 4 4 5 6 7 7 7 7 6 5 4 5 5 8 15 26 39 45 47 49 51 45 37 29 23 19 17 16 14 12 9 7 6 5 4 4 3 4 4 6 7 8 9 9 10 10 11 11 12 14 15 17 18 16 14 11 10 10 11 13 15 17 19 19 19 17 15
4 4 4 3 3 3 4 4 5 6 6 7 7 6 6 5 4 4 4 4 5 5 6 7 8 8 8 7 5 4 5 6 12 23 36 45 48 48 50 46 39 31 24 20 16 14 12 11 8 6 4 3 3 4 4 5 5 6 6 8 8 9 9 9 10 10 10 11 12 13 15 16 16 15 12 10 8 8 9 11 13 16 18 19 19 18
4 4 4 3 3 4 4 4 5 6 6 6 6 6 5 4 4 4 4 4 5 6 7 8 8 8 7 6 5 5 6 10 19 31 43 49 50 48 46 39 31 25 20 16 13 11 9 7 6 5 4 4 3 4 4 6 7 8 8 8 8 9 9 10 10 10 10 10 11 12 13 15 15 15 13 11 8 7 7 8 9 11 14 16 18 19
4 4 4 3 4 4 4 4 5 6 6 6 5 5 4 4 4 4 4 5 5 6 7 8 8 7 6 4 4 6 9 18 29 39 47 49 49 46 40 32 25 20 16 13 11 8 6 5 4 4 4 5 5 6 6 7 9 10 10 9 9 10 10 10 11 11 11 11 11 12 13 14 15 15 14 12 9 8 6 6 6 7 9 11 14 17
4 4 3 3 4 4 4 5 5 5 5 5 5 5 4 4 4 4 4 5 6 7 8 8 7 6 4 3 4 8 15 26 36 44 48 48 45 40 32 25 20 16 12 10 8 6 5 4 3 3 4 5 6 8 9 10 12 12 11 11 11 12 12 13 13 13 13 13 13 13 14 15 16 16 15 13 11 9 7 6 5 5 6 7 9 12
4 4 4 4 4 4 4 4 5 5 5 5 5 5 4 4 4 4 5 5 6 7 8 8 6 5 3 4 6 12 22 33 42 47 49 45 40 33 25 19 15 11 9 8 6 5 4 4 4 5 6 8 8 9 10 12 13 14 14 14 14 14 15 16 16 16 16 15 15 15 15 16 18 18 18 17 14 12 9 7 6 5 5 6 6 8
4 4 4 4 4 4 5 5 5 5 5 5 5 5 5 4 4 4 5 6 6 7 8 7 6 5 4 6 10 18 29 39 46 48 46 40 33 26 19 14 10 8 6 5 4 4 4 5 6 7 9 12 13 13 14 14 14 15 16 17 17 18 17 18 18 17 17 16 16 15 15 16 17 19 20 20 19 16 13 11 8 7 6 6 6 7
4 4 4 4 4 4 5 5 5 5 5 5 5 5 5 4 4 4 4 5 6 7 7 6 4 3 3 8 15 26 37 45 47 46 42 34 27 19 14 9 6 4 3 2 3 4 6 8 10 11 13 14 15 16 17 17 16 16 16 18 18 18 18 18 17 16 15 15 14 14 13 13 14 16 18 20 21 20 18 15 12 10 7 6 6 6
4 4 4 4 4 4 5 5 6 6 6 6 6 5 5 4 4 4 5 6 6 6 6 6 4 4 4 9 19 31 45 49 48 44 38 29 21 15 9 6 4 2 2 2 3 5 8 12 14 15 15 16 17 18 19 18 18 17 16 16 15 15 15 15 14 13 12 12 11 10 10 10 11 12 14 16 19 21 21 20 18 15 12 9 7 6
4 4 4 4 5 5 6 6 6 6 6 5 5 5 4 4 4 5 5 6 6 6 6 5 4 4 6 14 24 35 46 48 47 42 34 24 16 10 6 4 2 1 1 3 5 7 11 14 16 17 16 16 16 17 18 18 17 17 15 13 12 11 11 9 9 9 9 9 8 8 8 7 7 7 8 10 12 16 19 21 21 20 17 14 11 9
4 4 4 5 5 6 6 6 6 5 5 5 5 5 4 4 4 5 6 6 6 6 6 4 3 4 8 18 30 40 47 47 44 38 29 19 12 7 3 2 1 1 2 5 7 10 13 15 16 16 14 14 13 13 13 14 14 14 13 12 11 11 10 9 8 8 8 8 8 8 8 7 6 6 6 6 7 9 12 15 19 21 21 19 16 13
4 4 5 5 6 6 6 6 5 5 5 5 5 5 4 4 5 5 6 6 6 6 6 4 4 6 11 22 33 43 49 47 42 34 24 14 7 3 1 1 1 2 5 8 10 12 14 14 14 12 11 11 10 10 10 10 11 13 13 13 13 12 11 11 11 11 11 12 12 11 11 11 10 10 9 8 8 8 8 10 13 16 19 20 20 17
4 5 5 5 6 6 6 5 5 5 5 5 5 5 4 4 5 5 6 6 7 6 5 4 4 8 15 27 37 45 49 45 39 30 20 10 4 0 -0 1 3 5 8 10 11 12 12 12 10 9 8 8 8 8 9 11 13 15 16 16 16 16 15 15 15 15 15 16 17 17 17 17 17 17 16 14 13 12 11 10 11 12 14 18 20 20
5 5 5 5 6 6 6 5 5 5 5 5 5 4 4 4 5 5 6 6 6 6 4 4 5 10 19 32 43 48 49 44 36 26 16 8 2 -1 -1 2 5 8 10 11 12 11 9 7 7 6 7 7 7 8 10 13 15 17 18 18 18 19 19 19 19 18 19 19 20 20 21 22 23 23 22 21 20 19 18 16 14 13 12 15 18 20
5 5 5 6 6 6 6 5 5 5 5 5 4 4 4 5 5 6 6 6 6 6 4 4 6 12 23 36 44 48 49 43 33 22 13 6 1 -1 -1 3 7 10 12 12 11 9 6 4 4 5 7 9 10 11 13 15 16 16 16 16 17 18 19 20 20 19 19 19 19 19 20 21 23 24 25 25 25 24 23 22 21 19 17 16 16 18
5 5 5 6 6 6 6 5 5 5 5 5 4 4 4 5 5 6 7 6 6 5 4 4 8 16 28 39 45 46 46 39 30 19 10 4 1 -0 1 4 8 10 12 12 10 7 5 3 3 5 9 11 12 12 13 15 15 15 14 13 13 14 16 17 17 16 15 15 14 14 15 16 17 18 20 22 23 24 24 25 25 25 24 21 19 19
5 5 6 6 6 6 5 5 5 5 5 5 4 4 4 5 5 6 7 7 6 5 4 5 11 20 32 41 45 46 43 35 25 16 7 3 1 1 2 6 8 10 11 10 8 6 4 3 4 7 13 14 13 12 11 13 14 13 12 12 12 12 12 13 13 12 11 10 9 9 10 12 13 14 14 15 16 17 19 22 24 26 27 27 25 22
Height
5714 5712 5710 5708 5706 5703 5701 5698 5696 5693 5690 5687 5684 5681 5678 5675 5672 5669 5666 5663 5660 5656 5652 5648 5644 5640 5637 5633 5629 5625 5621 5617 5612 5608 5603 5599 5595 5590 5586 5581 5576 5571 5565 5560 5555 5549 5543 5537 5531 5525 5519 5512 5506 5500 5494 5487 5482 5476 5470 5464 5459 5455 5450 5446 5442 5438 5435 5432 5428 5425 5422 5419 5416 5413 5410 5407 5404 5402 5400 5397 5395 5393 5391 5389 5387 5385
5713 5711 5708 5706 5704 5702 5698 5696 5694 5691 5688 5685 5682 5679 5676 5672 5669 5666 5663 5660 5656 5653 5649 5646 5641 5637 5633 5629 5625 5622 5617 5613 5608 5604 5600 5595 5591 5587 5582 5577 5572 5567 5562 5557 5551 5546 5540 5534 5528 5521 5515 5508 5502 5496 5489 5483 5477 5471 5465 5460 5455 5450 5446 5442 5438 5435 5432 5428 5425 5422 5419 5416 5413 5410 5407 5404 5401 5398 5396 5394 5392 5389 5387 5386 5384 5382
5711 5709 5707 5704 5702 5700 5697 5694 5691 5688 5686 5683 5680 5677 5674 5671 5667 5664 5660 5657 5653 5649 5646 5642 5639 5634 5630 5626 5622 5618 5613 5609 5605 5601 5596 5592 5587 5583 5579 5574 5569 5564 5558 5553 5547 5542 5536 5530 5524 5517 5511 5505 5498 5492 5485 5479 5473 5467 5461 5456 5451 5446 5442 5438 5435 5432 5429 5426 5422 5419 5416 5413 5410 5407 5404 5401 5398 5396 5393 5391 5388 5386 5384 5383 5381 5379
5710 5707 5705 5702 5700 5697 5695 5692 5689 5686 5683 5681 5677 5674 5671 5668 5665 5661 5658 5654 5651 5647 5643 5639 5635 5631 5627 5622 5618 5614 5610 5606 5601 5597 5592 5588 5583 5579 5575 5571 5566 5561 5555 5550 5544 5538 5532 5527 5520 5514 5507 5501 5494 5488 5481 5475 5469 5463 5457 5452 5447 5442 5438 5434 5431 5428 5425 5422 5419 5416 5413 5410 5407 5404 5401 5398 5395 5392 5390 5387 5385 5383 5381 5379 5378 5377
5708 5705 5703 5700 5698 5695 5692 5690 5687 5684 5681 5678 5675 5672 5669 5665 5662 5659 5655 5652 5648 5644 5640 5636 5632 5628 5623 5619 5614 5610 5606 5602 5597 5593 5588 5583 5579 5575 5571 5566 5562 5557 5552 5546 5541 5535 5529 5523 5517 5510 5503 5497 5491 5484 5478 5471 5465 5459 5453 5448 5443 5439 5435 5431 5428 5425 5422 5419 5416 5413 5410 5407 5403 5400 5398 5395 5392 5389 5387 5384 5382 5380 5378 5376 5375 5373
5706 5704 5701 5698 5696 5693 5691 5688 5685 5682 5679 5675 5672 5669 5666 5663 5660 5656 5652 5649 5645 5641 5637 5633 5629 5625 5621 5616 5611 5607 5602 5598 5594 5589 5584 5579 5574 5570 5566 5562 5557 5552 5547 5542 5537 5531 5525 5519 5513 5506 5500 5493 5487 5481 5474 5468 5462 5456 5450 5445 5440 5436 5432 5428 5425 5422 5419 5416 5413 5410 5407 5403 5400 5397 5394 5392 5389 5386 5383 5381 5379 5377 5375 5373 5372 5371
5704 5702 5699 5697 5694 5692 5689 5687 5683 5680 5677 5674 5670 5667 5663 5660 5657 5654 5650 5647 5642 5638 5633 5629 5625 5621 5617 5613 5608 5603 5599 5595 5590 5586 5581 5575 5570 5566 5561 5557 5552 5548 5543 5538 5533 5527 5521 5515 5509 5502 5496 5490 5483 5477 5471 5464 5458 5452 5447 5442 5437 5433 5429 5426 5422 5419 5416 5413 5410 5407 5403 5400 5397 5394 5391 5388 5385 5383 5380 5378 5376 5374 5372 5371 5369 5368
5702 5699 5697 5695 5692 5689 5687 5684 5682 5679 5676 5673 5669 5665 5661 5657 5654 5650 5647 5644 5640 5636 5631 5626 5621 5617 5613 5610 5606 5601 5596 5591 5587 5582 5577 5572 5566 5561 5557 5552 5547 5543 5539 5534 5529 5523 5517 5511 5505 5499 5492 5486 5479 5473 5467 5461 5455 5449 5443 5439 5434 5430 5427 5423 5420 5417 5413 5410 5407 5404 5400 5397 5394 5391 5388 5385 5382 5380 5377 5375 5373 5371 5370 5368 5367 5365
5700 5698 5695 5693 5691 5688 5685 5682 5679 5677 5674 5671 5668 5665 5661 5656 5651 5647 5643 5640 5637 5633 5630 5625 5620 5614 5609 5606 5602 5598 5593 5588 5583 5579 5574 5568 5562 5557 5552 5547 5543 5538 5533 5529 5524 5518 5513 5507 5501 5494 5488 5482 5476 5469 5463 5457 5451 5446 5441 5436 5432 5428 5424 5421 5418 5414 5411 5408 5404 5401 5397 5394 5391 5388 5386 5382 5380 5377 5375 5372 5370 5369 5367 5366 5364 5362
5699 5697 5694 5691 5689 5687 5684 5681 5677 5674 5672 5669 5666 5663 5660 5656 5652 5646 5642 5637 5633 5630 5627 5624 5620 5615 5608 5602 5597 5593 5589 5584 5579 5574 5570 5565 5559 5553 5548 5543 5538 5533 5528 5524 5519 5513 5508 5502 5496 5490 5484 5477 5472 5465 5459 5453 5448 5443 5438 5433 5429 5426 5422 5419 5415 5412 5408 5405 5402 5398 5395 5392 5389 5386 5383 5380 5377 5375 5372 5370 5368 5366 5365 5363 5362 5360
5697 5694 5692 5689 5687 5684 5682 5679 5676 5672 5669 5666 5662 5659 5657 5654 5651 5647 5642 5637 5632 5628 5623 5620 5617 5614 5609 5602 5596 5590 5585 5580 5575 5570 5565 5560 5555 5549 5543 5538 5533 5528 5523 5518 5514 5509 5503 5497 5491 5485 5479 5473 5467 5462 5456 5450 5445 5440 5435 5431 5427 5423 5420 5417 5413 5410 5406 5403 5399 5396 5393 5390 5387 5384 5381 5378 5375 5373 5370 5368 5366 5364 5362 5361 5359 5358
5695 5693 5690 5688 5685 5682 5679 5677 5673 5671 5667 5664 5661 5657 5653 5651 5648 5645 5641 5637 5632 5628 5622 5617 5613 5610 5607 5602 5596 5589 5583 5577 5572 5567 5562 5557 5552 5545 5538 5533 5528 5523 5518 5513 5508 5503 5498 5492 5487 5481 5475 5469 5463 5458 5452 5447 5442 5437 5433 5429 5425 5421 5418 5414 5411 5407 5404 5401 5397 5394 5391 5388 5385 5382 5379 5376 5373 5371 5368 5366 5364 5362 5361 5359 5357 5356
5693 5691 5689 5686 5683 5681 5677 5674 5671 5668 5665 5662 5659 5656 5652 5648 5645 5642 5638 5634 5631 5627 5622 5617 5611 5607 5602 5598 5593 5588 5582 5575 5570 5564 5559 5555 5550 5543 5536 5529 5523 5519 5514 5508 5503 5498 5494 5488 5482 5476 5471 5465 5460 5454 5449 5444 5439 5435 5430 5427 5423 5419 5416 5412 5409 5406 5402 5399 5395 5392 5389 5386 5383 5381 5378 5375 5372 5369 5367 5364 5362 5361 5359 5357 5356 5354
5692 5689 5687 5684 5681 5679 5676 5673 5669 5666 5663 5661 5658 5654 5651 5647 5643 5640 5636 5632 5628 5624 5621 5616 5611 5605 5601 5597 5591 5585 5579 5573 5567 5562 5556 5551 5546 5541 5534 5526 5519 5514 5510 5505 5499 5493 5489 5484 5478 5472 5467 5461 5456 5451 5446 5441 5437 5432 5428 5424 5421 5417 5414 5410 5407 5403 5400 5397 5394 5390 5387 5385 5382 5379 5376 5373 5371 5368 5365 5363 5361 5359 5357 5356 5354 5353
5690 5687 5685 5682 5679 5677 5674 5671 5668 5664 5661 5658 5655 5652 5648 5644 5641 5638 5634 5631 5627 5623 5619 5615 5610 5604 5599 5595 5591 5586 5579 5572 5566 5560 5553 5547 5542 5537 5530 5523 5515 5509 5504 5500 5494 5489 5484 5478 5473 5468 5463 5457 5452 5447 5443 5438 5434 5430 5426 5422 5419 5415 5412 5408 5405 5402 5398 5395 5392 5389 5386 5383 5380 5377 5375 5372 5369 5367 5364 5362 5360 5358 5356 5354 5353 5351
5688 5686 5683 5680 5677 5675 5672 5669 5666 5663 5659 5656 5652 5649 5646 5642 5638 5635 5632 5628 5625 5621 5617 5614 5609 5604 5598 5592 5589 5585 5579 5572 5565 5558 5552 5545 5539 5533 5527 5520 5512 5505 5499 5494 5489 5484 5479 5473 5468 5463 5458 5453 5449 5444 5440 5436 5432 5428 5424 5420 5417 5413 5410 5407 5403 5400 5397 5393 5390 5387 5384 5381 5379 5376 5374 5371 5368 5365 5363 5361 5359 5357 5355 5353 5351 5350
5687 5684 5681 5679 5676 5673 5670 5667 5664 5661 5658 5654 5650 5647 5643 5640 5637 5633 5629 5626 5622 5618 5614 5611 5607 5603 5598 5592 5586 5581 5577 5570 5563 5556 5550 5543 5536 5530 5524 5517 5509 5502 5495 5489 5483 5478 5473 5468 5463 5459 5454 5449 5445 5441 5437 5433 5429 5426 5422 5418 5415 5412 5408 5405 5402 5399 5395 5392 5389 5385 5382 5380 5377 5375 5372 5370 5367 5364 5362 5360 5357 5356 5354 5352 5350 5349
5685 5682 5680 5677 5674 5672 5669 5666 5662 5659 5656 5652 5648 5644 5641 5637 5634 5630 5627 5623 5619 5615 5610 5606 5602 5599 5595 5590 5584 5579 5574 5568 5562 5555 5548 5541 5534 5528 5521 5513 5505 5498 5491 5484 5478 5473 5467 5462 5458 5454 5450 5446 5442 5437 5434 5430 5427 5423 5420 5416 5413 5410 5407 5403 5401 5397 5394 5391 5387 5384 5381 5378 5375 5373 5371 5368 5366 5363 5361 5358 5356 5354 5352 5351 5349 5347
5683 5681 5678 5675 5672 5670 5667 5664 5661 5657 5654 5650 5647 5643 5639 5635 5631 5627 5623 5619 5615 5611 5607 5603 5599 5595 5591 5587 5582 5577 5571 5565 5560 5553 5547 5541 5534 5527 5520 5512 5503 5495 5487 5480 5474 5468 5463 5458 5453 5449 5446 5442 5438 5435 5431 5428 5424 5421 5418 5415 5412 5408 5405 5402 5399 5396 5393 5389 5386 5382 5379 5376 5374 5371 5369 5367 5365 5362 5360 5357 5355 5353 5351 5349 5347 5346
5682 5679 5677 5674 5671 5668 5665 5662 5659 5656 5652 5648 5645 5642 5638 5634 5630 5626 5622 5617 5612 5608 5604 5600 5596 5592 5587 5583 5578 5573 5567 5562 5557 5551 5545 5538 5532 5526 5519 5511 5502 5494 5485 5477 5470 5464 5459 5454 5450 5446 5442 5439 5435 5432 5429 5426 5422 5419 5416 5413 5410 5407 5404 5401 5398 5395 5392 5388 5385 5381 5378 5375 5372 5370 5368 5366 5364 5362 5359 5357 5354 5352 5350 5348 5346 5345
5680 5678 5675 5673 5670 5667 5663 5660 5657 5653 5650 5647 5643 5640 5637 5632 5628 5624 5620 5616 5611 5606 5601 5597 5592 5587 5583 5578 5573 5569 5564 5559 5554 5548 5542 5536 5530 5524 5517 5510 5502 5493 5484 5476 5467 5461 5455 5451 5447 5443 5439 5436 5433 5430 5427 5424 5421 5418 5415 5412 5409 5406 5403 5400 5397 5394 5390 5387 5383 5380 5377 5373 5371 5368 5366 5364 5362 5360 5358 5356 5353 5351 5349 5347 5345 5343
5679 5676 5673 5670 5668 5665 5662 5658 5655 5652 5648 5645 5642 5638 5634 5631 5626 5622 5618 5613 5609 5604 5598 5593 5588 5584 5580 5576 5570 5565 5561 5556 5551 5546 5541 5534 5527 5521 5515 5507 5500 5492 5483 5475 5467 5459 5452 5447 5443 5440 5437 5434 5431 5428 5425 5422 5419 5416 5413 5411 5407 5405 5402 5398 5396 5392 5389 5386 5382 5379 5375 5372 5369 5367 5365 5363 5361 5359 5357 5354 5352 5350 5348 5346 5344 5342
5677 5674 5672 5669 5666 5663 5660 5657 5653 5650 5647 5644 5640 5636 5632 5628 5625 5621 5616 5612 5607 5602 5597 5591 5586 5581 5576 5572 5567 5562 5558 5553 5547 5542 5537 5531 5526 5520 5513 5506 5498 5490 5481 5473 5466 5458 5451 5446 5442 5438 5435 5432 5429 5426 5423 5421 5418 5415 5412 5409 5406 5403 5400 5397 5394 5391 5387 5384 5381 5377 5374 5371 5368 5366 5364 5362 5360 5358 5356 5354 5351 5349 5347 5345 5343 5342
5675 5672 5670 5667 5664 5661 5658 5655 5652 5649 5646 5642 5638 5634 5630 5626 5622 5619 5615 5611 5606 5601 5595 5590 5584 5578 5572 5567 5563 5559 5554 5550 5545 5539 5533 5527 5522 5517 5511 5505 5497 5489 5480 5472 5464 5457 5451 5445 5441 5437 5434 5431 5428 5425 5422 5419 5416 5413 5411 5408 5405 5402 5399 5396 5392 5389 5386 5383 5380 5377 5374 5371 5368 5365 5363 5361 5359 5357 5355 5353 5351 5348 5347 5345 5343 5341
5673 5671 5668 5665 5662 5660 5657 5654 5651 5647 5643 5640 5636 5632 5627 5623 5620 5616 5612 5608 5603 5598 5593 5588 5582 5577 5572 5567 5562 5557 5552 5547 5542 5537 5532 5525 5519 5513 5507 5502 5495 5488 5479 5471 5463 5456 5450 5444 5440 5437 5433 5430 5427 5424 5421 5418 5415 5412 5409 5407 5403 5400 5397 5394 5391 5388 5385 5382 5379 5376 5373 5371 5368 5365 5363 5361 5359 5357 5354 5352 5350 5348 5346 5344 5342 5341
5672 5669 5667 5664 5661 5658 5655 5652 5648 5645 5641 5637 5634 5630 5626 5622 5618 5614 5610 5605 5601 5596 5592 5587 5582 5577 5572 5567 5562 5557 5552 5546 5540 5535 5530 5523 5517 5510 5504 5497 5492 5485 5478 5469 5462 5455 5449 5444 5440 5436 5433 5430 5427 5423 5420 5417 5414 5411 5408 5405 5402 5399 5397 5393 5391 5387 5385 5382 5379 5376 5373 5371 5368 5365 5363 5361 5358 5356 5354 5352 5350 5347 5346 5344 5342 5340
5671 5668 5665 5662 5659 5656 5653 5649 5646 5642 5639 5635 5632 5628 5624 5621 5616 5612 5608 5604 5599 5595 5590 5586 5581 5576 5571 5565 5560 5555 5550 5544 5538 5532 5526 5520 5514 5508 5501 5494 5488 5482 5476 5468 5461 5454 5449 5444 5440 5436 5433 5430 5426 5423 5420 5416 5413 5410 5407 5405 5402 5399 5396 5393 5390 5387 5385 5382 5379 5376 5373 5371 5368 5365 5363 5361 5358 5356 5354 5352 5349 5347 5345 5343 5342 5340
5669 5666 5663 5660 5657 5654 5650 5647 5644 5640 5637 5633 5630 5627 5623 5619 5615 5611 5606 5602 5597 5592 5588 5584 5580 5575 5570 5564 5559 5553 5548 5543 5536 5529 5523 5517 5510 5504 5498 5491 5485 5479 5473 5467 5460 5454 5448 5444 5440 5436 5432 5429 5426 5422 5419 5416 5413 5410 5407 5404 5402 5399 5396 5393 5390 5387 5385 5382 5379 5377 5374 5371 5368 5366 5363 5361 5359 5357 5354 5352 5350 5347 5345 5343 5341 5340
5667 5664 5662 5658 5655 5652 5649 5645 5642 5639 5636 5632 5628 5625 5621 5617 5613 5609 5605 5600 5595 5591 5586 5581 5577 5573 5568 5563 5558 5552 5547 5541 5535 5527 5520 5513 5507 5500 5494 5487 5480 5475 5471 5466 5460 5454 5448 5444 5440 5436 5432 5429 5426 5422 5419 5416 5413 5410 5407 5405 5402 5399 5396 5393 5391 5388 5385 5382 5379 5377 5374 5371 5369 5366 5363 5361 5359 5357 5354 5352 5350 5347 5345 5343 5341 5339
5665 5662 5659 5657 5653 5650 5647 5644 5641 5637 5634 5631 5627 5623 5619 5615 5612 5607 5603 5598 5594 5589 5584 5579 5574 5569 5565 5560 5554 5548 5542 5536 5531 5524 5518 5511 5503 5497 5491 5483 5476 5471 5467 5463 5459 5454 5449 5444 5440 5436 5432 5429 5426 5423 5420 5417 5414 5411 5408 5406 5403 5400 5397 5394 5391 5388 5385 5382 5380 5377 5374 5372 5369 5366 5364 5361 5359 5357 5354 5352 5350 5347 5345 5343 5341 5339
5663 5661 5657 5654 5652 5648 5646 5642 5639 5636 5633 5629 5626 5622 5617 5613 5609 5605 5600 5596 5592 5587 5582 5577 5572 5567 5562 5556 5551 5545 5538 5532 5526 5520 5514 5507 5500 5493 5487 5481 5474 5468 5462 5459 5456 5453 5449 5445 5440 5437 5433 5430 5427 5424 5421 5418 5415 5412 5409 5406 5403 5400 5397 5395 5392 5389 5386 5382 5380 5377 5374 5371 5369 5366 5364 5361 5359 5357 5354 5352 5350 5347 5345 5343 5341 5339
5662 5659 5656 5653 5650 5647 5644 5641 5637 5634 5631 5627 5623 5619 5615 5611 5607 5602 5598 5594 5589 5585 5580 5575 5570 5564 5559 5553 5547 5542 5536 5530 5524 5517 5511 5504 5497 5489 5483 5478 5472 5466 5461 5457 5453 5451 5448 5445 5441 5437 5434 5430 5427 5424 5422 5418 5416 5413 5410 5407 5404 5401 5398 5395 5392 5389 5386 5383 5380 5377 5374 5371 5368 5366 5363 5361 5359 5357 5354 5352 5350 5347 5345 5343 5341 5339
5660 5657 5654 5652 5648 5646 5642 5639 5636 5632 5628 5625 5621 5617 5613 5608 5604 5600 5596 5591 5587 5583 5578 5573 5567 5561 5555 5549 5543 5538 5532 5527 5521 5514 5507 5500 5493 5487 5481 5475 5470 5465 5461 5456 5452 5449 5447 5444 5441 5438 5434 5431 5428 5425 5422 5419 5416 5413 5410 5407 5404 5401 5398 5395 5392 5389 5386 5383 5380 5377 5374 5371 5368 5366 5363 5361 5358 5356 5354 5352 5350 5347 5345 5343 5341 5338
5658 5656 5653 5650 5647 5644 5641 5637 5634 5630 5627 5623 5619 5614 5610 5606 5602 5597 5592 5588 5584 5580 5575 5571 5565 5560 5553 5547 5540 5533 5528 5522 5516 5510 5503 5497 5490 5484 5478 5473 5469 5465 5461 5457 5453 5450 5446 5443 5441 5438 5435 5432 5428 5425 5422 5419 5416 5413 5410 5407 5404 5401 5397 5395 5392 5388 5386 5383 5380 5377 5374 5372 5368 5366 5363 5361 5358 5356 5354 5352 5349 5347 5345 5343 5340 5338
5657 5654 5651 5648 5645 5642 5638 5635 5632 5628 5624 5621 5617 5612 5608 5603 5599 5595 5590 5585 5581 5576 5571 5567 5562 5557 5552 5545 5538 5532 5525 5518 5512 5506 5499 5493 5487 5482 5476 5472 5467 5464 5460 5457 5454 5451 5447 5444 5441 5438 5435 5432 5429 5426 5422 5419 5416 5412 5409 5407 5403 5400 5397 5394 5391 5388 5385 5383 5380 5377 5375 5372 5369 5366 5363 5360 5358 5356 5353 5351 5349 5347 5345 5343 5340 5338
5655 5652 5649 5647 5643 5640 5637 5633 5630 5626 5622 5618 5614 5611 5606 5602 5597 5592 5588 5583 5578 5573 5568 5563 5558 5553 5548 5542 5537 5530 5523 5516 5509 5503 5496 5490 5485 5479 5475 5470 5467 5463 5460 5457 5453 5451 5447 5444 5442 5438 5435 5432 5429 5426 5422 5419 5415 5412 5409 5406 5402 5399 5396 5393 5390 5387 5385 5382 5379 5377 5375 5372 5369 5366 5363 5360 5358 5355 5353 5351 5349 5347 5345 5342 5340 5338
5654 5651 5648 5645 5642 5639 5636 5632 5629 5625 5621 5617 5613 5608 5604 5600 5595 5591 5586 5580 5575 5570 5564 5559 5554 5548 5543 5538 5532 5526 5520 5513 5506 5499 5493 5487 5482 5477 5473 5469 5465 5462 5459 5457 5453 5451 5448 5445 5442 5439 5435 5432 5428 5425 5422 5419 5415 5412 5408 5405 5402 5398 5396 5392 5390 5387 5384 5381 5379 5376 5374 5372 5369 5366 5363 5361 5358 5355 5352 5350 5348 5346 5344 5342 5340 5338
5653 5650 5647 5644 5641 5637 5634 5631 5628 5624 5620 5616 5612 5607 5602 5598 5593 5589 5584 5578 5573 5567 5562 5556 5550 5545 5539 5533 5527 5521 5515 5509 5502 5496 5490 5485 5480 5476 5472 5468 5465 5461 5459 5456 5454 5451 5448 5445 5442 5439 5435 5432 5428 5425 5422 5419 5415 5412 5408 5404 5401 5398 5395 5392 5389 5386 5383 5381 5378 5375 5373 5371 5368 5366 5363 5361 5358 5355 5352 5350 5347 5345 5343 5341 5339 5337
5651 5649 5646 5643 5640 5637 5633 5630 5627 5623 5619 5615 5611 5607 5602 5597 5592 5587 5582 5577 5572 5566 5560 5554 5547 5542 5537 5531 5524 5517 5511 5504 5498 5493 5487 5482 5478 5475 5471 5468 5465 5462 5459 5456 5453 5451 5448 5445 5442 5438 5435 5432 5428 5425 5422 5418 5415 5412 5408 5405 5401 5397 5394 5392 5388 5386 5383 5380 5377 5375 5372 5370 5367 5365 5363 5360 5357 5355 5352 5349 5347 5344 5342 5340 5338 5336
5650 5647 5645 5642 5639 5636 5633 5629 5626 5622 5618 5614 5610 5605 5601 5596 5590 5585 5580 5575 5570 5564 5558 5552 5545 5538 5532 5527 5521 5515 5508 5502 5495 5490 5485 5481 5477 5474 5471 5468 5465 5462 5459 5456 5453 5451 5448 5445 5442 5438 5435 5432 5428 5425 5421 5417 5414 5411 5408 5405 5401 5397 5394 5391 5388 5386 5382 5380 5377 5374 5371 5369 5367 5364 5362 5360 5357 5354 5352 5349 5346 5343 5341 5339 5337 5335
5649 5646 5643 5640 5637 5635 5632 5628 5625 5621 5617 5613 5609 5604 5599 5594 5589 5584 5579 5574 5568 5563 5557 5551 5543 5536 5528 5522 5516 5511 5506 5500 5494 5488 5484 5480 5477 5474 5471 5469 5466 5463 5460 5457 5454 5451 5448 5445 5442 5438 5435 5432 5428 5425 5421 5417 5414 5411 5407 5404 5401 5398 5395 5392 5388 5385 5382 5379 5376 5373 5371 5368 5366 5363 5361 5359 5357 5354 5351 5348 5346 5343 5341 5338 5336 5334
5647 5645 5642 5639 5636 5633 5630 5627 5623 5619 5616 5612 5607 5603 5599 5594 5589 5585 5580 5574 5569 5563 5557 5552 5545 5538 5530 5522 5515 5508 5503 5498 5493 5488 5484 5480 5477 5474 5472 5469 5467 5463 5461 5457 5454 5451 5448 5445 5442 5438 5435 5431 5428 5424 5421 5417 5414 5411 5408 5405 5402 5399 5396 5392 5388 5385 5382 5379 5376 5373 5370 5367 5365 5362 5360 5357 5355 5353 5351 5348 5345 5343 5340 5338 5335 5333
5646 5643 5641 5638 5635 5632 5629 5626 5622 5618 5614 5610 5605 5601 5597 5593 5589 5584 5579 5574 5570 5564 5559 5552 5546 5540 5533 5526 5517 5510 5503 5497 5492 5488 5484 5481 5478 5475 5472 5470 5467 5464 5461 5458 5455 5452 5448 5445 5442 5438 5434 5431 5427 5424 5421 5417 5414 5411 5408 5405 5402 5399 5395 5392 5389 5385 5382 5379 5376 5373 5370 5367 5364 5361 5359 5357 5354 5352 5350 5347 5345 5342 5340 5337 5335 5333
5645 5642 5639 5637 5634 5631 5627 5624 5620 5616 5612 5608 5604 5600 5596 5591 5587 5583 5578 5573 5568 5563 5558 5552 5547 5540 5533 5527 5519 5512 5505 5498 5493 5489 5485 5482 5479 5476 5473 5470 5467 5464 5461 5458 5455 5452 5449 5445 5442 5438 5434 5431 5427 5424 5421 5418 5415 5412 5409 5405 5402 5399 5396 5392 5389 5386 5382 5379 5376 5372 5369 5366 5363 5361 5358 5355 5353 5351 5349 5347 5344 5342 5340 5337 5335 5332
5643 5641 5638 5636 5632 5629 5626 5622 5618 5615 5611 5607 5603 5599 5594 5590 5586 5581 5577 5572 5567 5562 5556 5551 5546 5540 5533 5527 5520 5513 5507 5500 5495 5490 5486 5482 5479 5477 5474 5471 5468 5465 5462 5458 5455 5452 5449 5446 5442 5438 5435 5432 5428 5425 5422 5419 5416 5413 5410 5406 5402 5399 5396 5392 5389 5386 5382 5379 5376 5372 5369 5366 5363 5360 5357 5355 5352 5350 5348 5346 5344 5341 5339 5337 5334 5332
5642 5640 5637 5634 5631 5628 5624 5621 5617 5613 5609 5605 5602 5597 5593 5588 5584 5580 5575 5571 5566 5560 5555 5549 5544 5539 5533 5527 5521 5514 5508 5502 5497 5492 5487 5484 5480 5477 5474 5471 5468 5465 5462 5458 5455 5452 5449 5446 5443 5439 5436 5432 5429 5426 5423 5420 5417 5413 5410 5406 5402 5399 5395 5392 5388 5385 5382 5379 5376 5373 5369 5366 5363 5360 5357 5354 5352 5349 5347 5344 5342 5340 5338 5336 5334 5332
5641 5639 5636 5633 5630 5627 5623 5619 5615 5612 5607 5604 5600 5596 5592 5587 5583 5578 5573 5569 5564 5559 5554 5548 5542 5537 5531 5525 5519 5514 5509 5504 5499 5495 5490 5486 5482 5478 5475 5472 5468 5465 5462 5458 5455 5452 5449 5446 5443 5440 5437 5433 5430 5426 5423 5420 5416 5413 5409 5406 5402 5399 5395 5391 5388 5384 5381 5378 5376 5372 5369 5366 5363 5360 5357 5354 5351 5348 5346 5343 5341 5339 5337 5335 5333 5331
5640 5637 5635 5632 5629 5625 5622 5618 5614 5610 5607 5602 5598 5594 5590 5586 5582 5577 5572 5567 5562 5558 5553 5547 5541 5535 5529 5523 5518 5513 5508 5504 5500 5496 5492 5489 5485 5481 5477 5473 5469 5465 5462 5458 5455 5452 5449 5446 5443 5440 5437 5434 5430 5427 5423 5419 5415 5412 5408 5405 5401 5398 5394 5391 5387 5384 5381 5377 5375 5372 5369 5366 5363 5360 5357 5354 5351 5348 5345 5342 5340 5338 5336 5334 5332 5330
5639 5637 5634 5631 5628 5624 5621 5617 5613 5609 5606 5602 5597 5593 5589 5584 5581 5576 5571 5566 5561 5556 5552 5546 5540 5534 5528 5522 5517 5512 5508 5503 5500 5497 5493 5490 5487 5483 5479 5475 5471 5467 5463 5460 5456 5452 5449 5446 5443 5441 5437 5434 5430 5427 5422 5418 5414 5411 5407 5403 5400 5397 5393 5390 5387 5383 5380 5377 5374 5371 5368 5365 5362 5360 5357 5354 5350 5347 5345 5342 5340 5337 5335 5333 5331 5330
5638 5636 5633 5630 5627 5623 5620 5616 5612 5608 5605 5601 5597 5592 5588 5583 5579 5574 5570 5564 5559 5554 5549 5544 5539 5533 5527 5522 5517 5512 5508 5504 5500 5497 5494 5491 5488 5485 5481 5477 5474 5470 5467 5463 5459 5455 5451 5447 5444 5441 5437 5434 5430 5426 5422 5418 5414 5411 5407 5403 5400 5397 5393 5390 5387 5383 5380 5377 5374 5371 5368 5365 5362 5359 5357 5354 5351 5347 5345 5342 5339 5337 5334 5332 5330 5329
5637 5635 5632 5629 5626 5622 5619 5615 5612 5608 5604 5600 5596 5592 5588 5583 5578 5573 5568 5563 5558 5552 5547 5542 5537 5532 5526 5521 5516 5512 5507 5504 5501 5497 5495 5492 5488 5485 5482 5479 5476 5472 5469 5465 5462 5457 5453 5449 5445 5441 5437 5433 5430 5426 5422 5418 5415 5411 5407 5404 5401 5397 5394 5391 5387 5384 5381 5377 5374 5371 5368 5365 5362 5360 5357 5354 5351 5348 5345 5342 5339 5337 5334 5332 5329 5327